Hourly Weather Roundup
Issued by NWS Central Illinois

Home | Current Version | Previous Version | Text Only | Print | Product List | Glossary On
Versions: 1 2 3 4 5 6 7 8 9 10 11 12 13 14 15 16 17 18 19 20 21 22 23 24 25 26 27 28 29 30 31 32 33 34 35 36 37 38 39 40 41 42 43 44 45 46 47 48 49 50
000
NZUS43 KILX 231910
HWRILX

Area Weather Roundup
National Weather Service Lincoln IL
100 PM CST FRI FEB 23 2018

NOTE:  "FAIR" indicates few or no clouds below 12,000 feet, with
       no sigificant weather and/or obstructions to visibility.


CITY           SKY/WX    TMP DP  RH WIND       PRES   REMARKS
Bloomington    CLOUDY    39  37  92 W15       30.23F WCI  31
Champaign      CLOUDY    44  41  89 W14       30.24F
Danville       CLOUDY    46  42  89 W16       30.21S
Decatur        CLOUDY    44  40  85 W9        30.25F
Effingham      CLOUDY    50  47  90 W6        30.27F
Flora          PTSUNNY   53  47  80 W7        30.26F
Galesburg      CLOUDY    37  35  92 W14       30.26S WCI  28
Jacksonville   CLOUDY    39  37  89 W8        30.26F WCI  34
Lacon          CLOUDY    37  34  90 W7        30.24S WCI  31
Lawrenceville  CLOUDY    53  48  83 SW9       30.27R
Litchfield     CLOUDY    45  42  89 W5        30.26F
$$


CITY           SKY/WX    TMP DP  RH WIND       PRES   REMARKS
Lincoln        CLOUDY    41  39  93 W6        30.25F
Macomb         CLOUDY   N/A N/A N/A W12       30.28S
Mattoon        CLOUDY    47  43  86 W9G20     30.25S
Mt Carmel AP   CLOUDY    52  48  87 W8        30.27S
Olney-Noble AP PTSUNNY   51  49  92 W5        30.27S
Paris AP       CLOUDY    47  45  91 W13       30.26F
Peoria         CLOUDY    37  34  89 W13       30.26R WCI  29
Pontiac        CLOUDY    39  39  98 W14       30.23F WCI  31
Rantoul        CLOUDY    45  42  91 W14       30.24S
Robinson       CLOUDY    51  48  89 W7        30.27F
Springfield    CLOUDY    42  39  89 W10       30.26F
Taylorville    CLOUDY    44  41  88 W8        30.26F
$$

...REGIONAL REPORTS...


CITY           SKY/WX    TMP DP  RH WIND       PRES   REMARKS
Chicago O`Hare CLOUDY    40  35  83 W16G24    30.17R WCI  31
Kankakee       CLOUDY    40  39  97 W17       30.23R WCI  31
Moline         CLOUDY    40  34  79 W12       30.22F WCI  33
Mount Sterling CLOUDY    36  34  93 W9        30.27S WCI  29
Mount Vernon   CLOUDY    51  46  83 VRB3      30.26F
Pittsfield     CLOUDY    38  36  92 W8        30.28F WCI  32
Quincy         CLOUDY    37  34  89 W8        30.27S WCI  31
Rockford       CLOUDY    37  32  82 W10       30.20S WCI  30
$$


CITY           SKY/WX    TMP DP  RH WIND       PRES   REMARKS
Burlington     CLOUDY    36  32  85 VRB6      30.25F WCI  31
Cedar Rapids   PTSUNNY   36  27  69 W16       30.23S WCI  26
Des Moines     PTSUNNY   35  26  69 NW12      30.28F WCI  27
Kirksville     CLOUDY    36  32  85 W6        30.27F WCI  31
Ottumwa        MOSUNNY   39  28  64 W10       30.26F WCI  32
St Louis       CLOUDY    49  43  80 W6        30.25F
$$


CITY           SKY/WX    TMP DP  RH WIND       PRES   REMARKS
Terre Haute    CLOUDY    52  47  83 W13       30.24F
Evansville     CLOUDY    53  50  89 CALM      30.25F
Indianapolis   CLOUDY    53  50  89 SW15      30.22S
Lafayette      CLOUDY    47  44  90 W13       30.22R
Madison        CLOUDY    37  31  78 W7G16     30.13F WCI  32
Milwaukee      CLOUDY    40  35  83 W13G23    30.12S WCI  32
$$






USA.gov is the U.S. government's official web portal to all federal, state and local government web resources and services.